Blattenbach Aussen Messungen

Zurück zum Überblick

Zeitpunkt Temperatur Temperatur Kabelsensor Luftfeuchte
19.11.2018 20:30:40 0,4 C 7,2 C 76,0%
19.11.2018 20:23:40 0,4 C 7,2 C 76,0%
19.11.2018 20:16:38 0,5 C 7,2 C 76,0%
19.11.2018 20:09:37 0,7 C 7,2 C 75,0%
19.11.2018 20:02:39 0,6 C 7,2 C 75,0%
19.11.2018 19:55:38 0,8 C 7,2 C 75,0%
19.11.2018 19:48:40 0,8 C 7,3 C 75,0%
19.11.2018 19:41:38 1,0 C 7,3 C 75,0%
19.11.2018 19:34:40 1,1 C 7,3 C 75,0%
19.11.2018 19:27:41 1,1 C 7,3 C 74,0%
19.11.2018 19:20:39 1,2 C 7,3 C 74,0%
19.11.2018 19:13:39 1,3 C 7,3 C 75,0%
19.11.2018 19:06:40 1,3 C 7,3 C 74,0%
19.11.2018 18:59:37 1,3 C 7,3 C 74,0%
19.11.2018 18:52:37 1,4 C 7,3 C 74,0%
19.11.2018 18:45:41 1,6 C 7,3 C 74,0%
19.11.2018 18:38:39 1,7 C 7,3 C 73,0%
19.11.2018 18:31:38 1,9 C 7,3 C 73,0%
19.11.2018 18:24:40 2,0 C 7,3 C 73,0%
19.11.2018 18:17:37 2,0 C 7,3 C 73,0%
19.11.2018 18:10:37 2,0 C 7,3 C 73,0%
19.11.2018 18:03:41 1,9 C 7,3 C 73,0%
19.11.2018 17:56:23 1,9 C 7,3 C 73,0%
19.11.2018 17:49:26 1,9 C 7,3 C 74,0%
19.11.2018 17:42:24 1,8 C 7,3 C 73,0%
19.11.2018 17:35:25 1,8 C 7,3 C 73,0%
19.11.2018 17:28:22 2,0 C 7,3 C 73,0%
19.11.2018 17:21:24 2,1 C 7,4 C 73,0%
19.11.2018 17:14:23 2,3 C 7,4 C 73,0%
19.11.2018 17:07:24 2,3 C 7,4 C 72,0%
19.11.2018 17:00:26 2,4 C 7,4 C 72,0%
19.11.2018 16:53:25 2,4 C 7,4 C 72,0%
19.11.2018 16:46:25 2,5 C 7,4 C 72,0%
19.11.2018 16:39:22 2,5 C 7,4 C 72,0%
19.11.2018 16:32:24 2,5 C 7,4 C 72,0%
19.11.2018 16:25:23 2,5 C 7,4 C 72,0%
19.11.2018 16:18:25 2,6 C 7,4 C 72,0%
19.11.2018 16:11:22 2,7 C 7,4 C 72,0%
19.11.2018 16:04:24 2,7 C 7,4 C 72,0%
19.11.2018 15:57:24 2,7 C 7,4 C 72,0%
19.11.2018 15:50:26 2,8 C 7,4 C 72,0%
19.11.2018 15:43:22 3,0 C 7,4 C 72,0%
19.11.2018 15:36:23 3,0 C 7,4 C 72,0%
19.11.2018 15:29:24 3,1 C 7,4 C 72,0%
19.11.2018 15:22:24 3,0 C 7,4 C 72,0%
19.11.2018 15:15:27 3,0 C 7,4 C 72,0%
19.11.2018 15:08:24 2,9 C 7,4 C 72,0%
19.11.2018 15:01:25 3,1 C 7,4 C 72,0%
19.11.2018 14:54:25 3,1 C 7,4 C 72,0%
19.11.2018 14:47:22 2,9 C 7,4 C 72,0%